Hopewell, New Jersey, United States (08525)
Lat: 40.39N, Lon: 74.76W
Wx Zone: NJZ015
Local Info
Past Weather Observations for Thursday, May 26, 2016

NOTE: This archive is for the closest National Weather Service station to Hopewell. Information may differ from the station used for current weather conditions.

Click here for Long-term Archive

Time Weather Temperature Dewpoint Humidity Pressure Winds Precip Visibility
23:53
Partly Cloudy
66°F / 19°C 59°F / 15°C 78% 30.04 in
(1017 mb)
Calm - 9SM
22:53
Mostly Cloudy
68°F / 20°C 59°F / 15°C 73% 30.04 in
(1017 mb)
Calm - 9SM
21:53
Clear
70°F / 21°C 57°F / 14°C 64% 30.04 in
(1017 mb)
Calm - 10SM
20:53
Clear
72°F / 22°C 57°F / 14°C 61% 30.04 in
(1017 mb)
SSE 4.6 mph
(SSE 7 kph)
- 10SM
19:53
Clear
72°F / 22°C 59°F / 15°C 65% 30.01 in
(1016 mb)
Calm - 10SM
18:53
Clear
79°F / 26°C 55°F / 13°C 45% 30.01 in
(1016 mb)
Calm - 9SM
17:53
Clear
84°F / 29°C 55°F / 13°C 37% 30.01 in
(1016 mb)
S 3.5 mph
(S 6 kph)
- 9SM
16:53
Clear
88°F / 31°C 54°F / 12°C 31% 30.01 in
(1016 mb)
S 4.6 mph
(S 7 kph)
- 9SM
15:53
Clear
88°F / 31°C 54°F / 12°C 31% 30.04 in
(1017 mb)
Variable 6.9 mph
(Variable 11 kph)
- 9SM
14:53
Clear
88°F / 31°C 55°F / 13°C 33% 30.04 in
(1017 mb)
S 6.9 mph
(S 11 kph)
- 9SM
13:53
Clear
88°F / 31°C 57°F / 14°C 35% 30.04 in
(1017 mb)
Variable 3.5 mph
(Variable 6 kph)
- 9SM
12:53
Clear
88°F / 31°C 52°F / 11°C 29% 30.04 in
(1017 mb)
W 8.1 mph
(W 13 kph)
- 9SM
11:53
Clear
88°F / 31°C 54°F / 12°C 31% 30.06 in
(1018 mb)
Calm - 10SM
10:53
Clear
84°F / 29°C 57°F / 14°C 40% 30.06 in
(1018 mb)
S 6.9 mph
(S 11 kph)
- 10SM
09:53
Clear
82°F / 28°C 59°F / 15°C 45% 30.06 in
(1018 mb)
Variable 3.5 mph
(Variable 6 kph)
- 9SM
08:53
Clear
81°F / 27°C 61°F / 16°C 51% 30.09 in
(1019 mb)
Calm - 9SM
07:53
Clear
73°F / 23°C 61°F / 16°C 65% 30.09 in
(1019 mb)
Calm - 8SM
06:53
Clear
64°F / 18°C 57°F / 14°C 78% 30.12 in
(1020 mb)
Calm - 8SM
05:53
Clear
Fog And Mist
57°F / 14°C 54°F / 12°C 88% 30.09 in
(1019 mb)
Calm - 6SM
04:53
Clear
Fog And Mist
54°F / 12°C 52°F / 11°C 94% 30.09 in
(1019 mb)
Calm - 4SM
03:53
Clear
55°F / 13°C 52°F / 11°C 88% 30.09 in
(1019 mb)
Calm - 7SM
02:53
Clear
55°F / 13°C 54°F / 12°C 94% 30.06 in
(1018 mb)
Calm - 7SM
01:53
Clear
Fog And Mist
55°F / 13°C 54°F / 12°C 94% 30.06 in
(1018 mb)
Calm - 6SM
00:53
Clear
57°F / 14°C 54°F / 12°C 88% 30.06 in
(1018 mb)
Calm - 8SM
Time Weather Temperature Dewpoint Humidity Pressure Winds Precip Visibility


Weather for websites

WeatherForYou.com, LLC is not responsible for any damages or problems caused by this service. Current weather conditions are obtained from the closest station including government and personal stations which may have varying degrees of accuracy. Weather forecasts are derived from the NOAA NDFD. Like all things, this site belongs to Jesus Christ... He just trusts us to maintain it. If you have any questions or comments email webmaster@weatherforyou.com

Copyright © 2016, WeatherForYou.com LLC. All rights reserved.